* Astronomy

Members Login
Username 
 
Password 
    Remember Me  
Post Info TOPIC: Asteroid 2012 JO4


L

Posts: 131433
Date:
Asteroid 2012 JO4
Permalink  
 


Orbital elements:
2012 JO4                                                 Earth MOID = 0.0248 AU
Epoch 2012 Mar. 14.0 TT = JDT 2456000.5                 MPC
M 346.35590              (2000.0)            P               Q
n   0.40106251     Peri.  123.63319     -0.91898275     +0.39337238
a   1.8210757      Node    79.54411     -0.37024506     -0.83735004
e   0.4422448      Incl.    1.57317     -0.13560716     -0.37960912
P   2.46           H   25.0           G   0.15           U   6

MPEC 2012 - J44



__________________
Page 1 of 1  sorted by
 
Quick Reply

Please log in to post quick replies.



Create your own FREE Forum
Report Abuse
Powered by ActiveBoard